Location: Montr�al
(45.5000°N, 73.5830°W)
Time: 01:56:51
(UTC-04:00)

Cosmos 1151 Rocket - Visible Passes

Search period start: 20 September 2014 00:00
Search period end: 30 September 2014 00:00
Orbit: 594 x 619 km, 82.5° (Epoch: 19 September)

Date Brightness Start Highest point End Pass type
(mag) Time Alt. Az. Time Alt. Az. Time Alt. Az.
20 Sep 5.2 20:41:59 13° NE 20:41:59 13° NE 20:42:35 10° NE visible
20 Sep 5.3 22:18:50 21° NNW 22:18:50 21° NNW 22:20:38 10° N visible
21 Sep 4.7 20:54:55 20° NE 20:54:55 20° NE 20:56:27 10° NNE visible
21 Sep 5.6 22:31:47 18° NW 22:31:47 18° NW 22:33:36 10° NNW visible
22 Sep 4.2 21:07:47 30° NNE 21:07:47 30° NNE 21:10:05 10° NNE visible
22 Sep 6.0 22:44:38 13° NW 22:44:38 13° NW 22:46:07 10° NW visible
23 Sep 3.8 21:20:32 44° N 21:20:32 44° N 21:23:32 10° N visible
24 Sep 4.7 19:56:18 15° ENE 19:56:18 15° ENE 19:58:05 10° NE visible
24 Sep 4.0 21:33:08 45° NW 21:33:08 45° NW 21:36:49 10° N visible
25 Sep 3.9 20:08:41 26° E 20:08:41 26° E 20:12:13 10° NNE visible
25 Sep 4.8 21:45:29 27° W 21:46:11 29° WNW 21:49:56 10° NNW visible
26 Sep 3.3 20:20:34 32° SE 20:21:56 42° E 20:25:59 10° NNE visible
26 Sep 5.6 21:57:20 12° WSW 21:59:46 18° WNW 22:02:47 10° NNW visible
27 Sep 2.8 20:31:01 10° S 20:35:15 73° E 20:39:32 10° NNE visible
27 Sep 6.1 22:11:55 10° W 22:13:25 12° WNW 22:14:57 10° NW visible
28 Sep 4.8 19:10:11 10° ESE 19:11:40 12° E 19:13:08 10° ENE visible
28 Sep 3.3 20:44:25 10° SSW 20:48:39 66° W 20:52:56 10° N visible
29 Sep 4.3 19:21:48 10° SE 19:24:48 19° E 19:27:50 10° NE visible
29 Sep 4.3 20:58:06 10° SW 21:02:06 39° WNW 21:06:09 10° N visible
